Location: Aranbee
(34.0885°N, 118.2342°W)
Time: 08:28:27
(UTC+00:00)

ISS - Visible Passes

Search period start: 29 January 2022 00:00
Search period end: 08 February 2022 00:00
Orbit: 413 x 422 km, 51.6° (Epoch: 29 January)

Date Brightness Start Highest point End Pass type
(mag) Time Alt. Az. Time Alt. Az. Time Alt. Az.
02 Feb -1.7 02:40:26 10° NNW 02:41:56 16° NNE 02:41:56 16° NNE visible
03 Feb -1.5 01:52:59 10° N 01:54:15 12° NNE 01:55:32 10° NE visible
03 Feb -1.3 03:28:05 10° NW 03:29:07 18° NW 03:29:07 18° NW visible
04 Feb -3.5 02:39:53 10° NW 02:43:06 44° NE 02:43:29 42° ENE visible
05 Feb -2.6 01:51:48 10° NNW 01:54:39 25° NE 01:57:30 10° E visible
05 Feb -1.6 03:28:33 10° WNW 03:31:02 24° WSW 03:31:02 24° WSW visible
06 Feb -2.9 02:39:48 10° WNW 02:43:02 49° SW 02:45:56 12° SSE visible
07 Feb -3.8 01:51:19 10° NW 01:54:38 80° NE 01:57:58 10° SE visible
